Terug naar catalogus

NAVSTAR 66

USA 232

ActiefNavigatieHEO
NORAD 37753·PAYLOAD·🇺🇸 United States

Gelanceerd Jul 16, 2011 vanaf Cape Canaveral Space Force Station

Loading…

Volgende Passages (komende 24 uur)

TLE

VersSource: Space-Track

Epoch: Sep 14, 2026, 15:39 UTC

1 37753U 11036A   26257.65244256 -.00000096  00000-0  00000-0 0  9998
2 37753  56.5163 328.5364 0140651  63.0631 326.2604  2.00561223111074

Volg NAVSTAR 66 in realtime met AllMySat

Download on the App Store